Location: Maiden
(35.5760°N, 81.2120°W)
Time: 03:18:59
(UTC-04:00)

SPOT 5 - Pass Details

Date: 02 August 2020
Orbit: 622 x 815 km, 98.3° (Epoch: 11 August)

Event Time Altitude Azimuth Distance (km) Brightness Sun altitude
Exits shadow 23:19:34 48° 345° (NNW) 828 3.4 -28.5°
Drops below altitude 10° 23:22:42 10° 347° (NNW) 2,001 6.0 -28.9°
Sets 23:24:52 0° 348° (NNW) 2,908 7.0 -29.2°
